Wetterdaten: Sonntag, 16.08.2015
Datum Zeit Temp. A. Feuchte A. Luftdruck Regen Wind Richtung Richtung Sonnenschein ET UV Solar Taupunkt Windchill Windben Empfang
16.08.2015 00:02 19,6 C 78 % 1008,6 hPa 0,0 l/m 0,7 km/h (0 Bft) NW 309 0 min 0,000 mm 0,0 UV-I 0 W/m 15,7 C 19,6 C 4,0 km/h (1 Bft) 0,00 %
16.08.2015 00:07 19,6 C 78 % 1008,7 hPa 0,0 l/m 0,0 km/h (0 Bft) N-NW 332 0 min 0,000 mm 0,0 UV-I 0 W/m 15,7 C 19,6 C 0,0 km/h (0 Bft) 0,00 %
16.08.2015 00:12 19,6 C 77 % 1008,8 hPa 0,0 l/m 0,4 km/h (0 Bft) W 276 0 min 0,000 mm 0,0 UV-I 0 W/m 15,5 C 19,6 C 4,0 km/h (1 Bft) 0,00 %
16.08.2015 00:17 19,6 C 77 % 1009,0 hPa 0,0 l/m 0,0 km/h (0 Bft) NW 317 0 min 0,000 mm 0,0 UV-I 0 W/m 15,5 C 19,6 C 0,0 km/h (0 Bft) 0,00 %
16.08.2015 00:22 19,6 C 76 % 1008,9 hPa 0,0 l/m 9,4 km/h (2 Bft) W 262 0 min 0,000 mm 0,0 UV-I 0 W/m 15,2 C 18,4 C 15,8 km/h (3 Bft) 0,00 %
16.08.2015 00:27 19,6 C 76 % 1009,0 hPa 0,0 l/m 14,0 km/h (3 Bft) W-SW 243 0 min 0,000 mm 0,0 UV-I 0 W/m 15,2 C 17,0 C 15,8 km/h (3 Bft) 0,00 %
16.08.2015 00:32 19,5 C 76 % 1009,3 hPa 0,0 l/m 8,3 km/h (2 Bft) W-SW 254 0 min 0,000 mm 0,0 UV-I 0 W/m 15,2 C 18,7 C 19,8 km/h (3 Bft) 0,00 %
16.08.2015 00:37 19,4 C 76 % 1009,1 hPa 0,0 l/m 10,8 km/h (2 Bft) SW 236 0 min 0,000 mm 0,0 UV-I 0 W/m 15,1 C 17,7 C 11,9 km/h (2 Bft) 0,00 %
16.08.2015 00:42 19,3 C 76 % 1008,9 hPa 0,0 l/m 2,2 km/h (1 Bft) O-NO 65 0 min 0,000 mm 0,0 UV-I 0 W/m 15,0 C 19,3 C 4,0 km/h (1 Bft) 0,00 %
16.08.2015 00:47 19,2 C 77 % 1009,0 hPa 0,0 l/m 1,4 km/h (1 Bft) NW 324 0 min 0,000 mm 0,0 UV-I 0 W/m 15,1 C 19,2 C 4,0 km/h (1 Bft) 0,00 %
16.08.2015 00:52 19,2 C 77 % 1009,0 hPa 0,0 l/m 0,0 km/h (0 Bft) O-NO 78 0 min 0,000 mm 0,0 UV-I 0 W/m 15,1 C 19,2 C 0,0 km/h (0 Bft) 0,00 %
16.08.2015 00:57 19,1 C 78 % 1009,0 hPa 0,0 l/m 0,7 km/h (0 Bft) N-NW 334 0 min 0,000 mm 0,0 UV-I 0 W/m 15,2 C 19,1 C 4,0 km/h (1 Bft) 0,00 %
16.08.2015 01:02 19,0 C 78 % 1008,8 hPa 0,0 l/m 10,4 km/h (2 Bft) W-SW 255 0 min 0,000 mm 0,0 UV-I 0 W/m 15,1 C 17,4 C 11,9 km/h (2 Bft) 0,00 %
16.08.2015 01:07 18,9 C 79 % 1009,0 hPa 0,0 l/m 0,7 km/h (0 Bft) W-SW 255 0 min 0,000 mm 0,0 UV-I 0 W/m 15,2 C 18,9 C 4,0 km/h (1 Bft) 0,00 %
16.08.2015 01:12 18,9 C 79 % 1008,9 hPa 0,0 l/m 3,2 km/h (1 Bft) N 357 0 min 0,000 mm 0,0 UV-I 0 W/m 15,2 C 18,9 C 11,9 km/h (2 Bft) 0,00 %
16.08.2015 01:17 18,8 C 79 % 1009,0 hPa 0,0 l/m 4,0 km/h (1 Bft) NW 320 0 min 0,000 mm 0,0 UV-I 0 W/m 15,1 C 18,8 C 4,0 km/h (1 Bft) 0,00 %
16.08.2015 01:22 18,8 C 79 % 1008,8 hPa 0,0 l/m 11,5 km/h (2 Bft) W-SW 255 0 min 0,000 mm 0,0 UV-I 0 W/m 15,1 C 16,8 C 11,9 km/h (2 Bft) 0,00 %
16.08.2015 01:27 18,7 C 79 % 1009,0 hPa 0,0 l/m 12,2 km/h (2 Bft) NW 318 0 min 0,000 mm 0,0 UV-I 0 W/m 15,0 C 16,5 C 15,8 km/h (3 Bft) 0,00 %
16.08.2015 01:32 18,7 C 80 % 1009,0 hPa 0,0 l/m 0,0 km/h (0 Bft) N-NW 341 0 min 0,000 mm 0,0 UV-I 0 W/m 15,2 C 18,7 C 0,0 km/h (0 Bft) 0,00 %
16.08.2015 01:37 18,6 C 80 % 1009,1 hPa 0,0 l/m 9,0 km/h (2 Bft) W-SW 256 0 min 0,000 mm 0,0 UV-I 0 W/m 15,1 C 17,5 C 11,9 km/h (2 Bft) 0,00 %
16.08.2015 01:42 18,5 C 81 % 1008,9 hPa 0,0 l/m 0,4 km/h (0 Bft) NO 42 0 min 0,000 mm 0,0 UV-I 0 W/m 15,2 C 18,5 C 4,0 km/h (1 Bft) 0,00 %
16.08.2015 01:47 18,5 C 81 % 1009,0 hPa 0,0 l/m 1,8 km/h (1 Bft) W-NW 299 0 min 0,000 mm 0,0 UV-I 0 W/m 15,2 C 18,5 C 4,0 km/h (1 Bft) 0,00 %
16.08.2015 01:52 18,4 C 81 % 1009,0 hPa 0,0 l/m 0,0 km/h (0 Bft) N-NO 29 0 min 0,000 mm 0,0 UV-I 0 W/m 15,1 C 18,4 C 0,0 km/h (0 Bft) 0,00 %
16.08.2015 01:57 18,4 C 81 % 1008,9 hPa 0,0 l/m 1,8 km/h (1 Bft) N-NW 336 0 min 0,000 mm 0,0 UV-I 0 W/m 15,1 C 18,4 C 4,0 km/h (1 Bft) 0,00 %
16.08.2015 02:02 18,4 C 81 % 1009,0 hPa 0,0 l/m 0,4 km/h (0 Bft) N 351 0 min 0,000 mm 0,0 UV-I 0 W/m 15,1 C 18,4 C 4,0 km/h (1 Bft) 0,00 %
16.08.2015 02:07 18,5 C 80 % 1009,0 hPa 0,0 l/m 0,0 km/h (0 Bft) NW 312 0 min 0,000 mm 0,0 UV-I 0 W/m 15,0 C 18,5 C 0,0 km/h (0 Bft) 0,00 %
16.08.2015 02:12 18,6 C 80 % 1008,9 hPa 0,0 l/m 0,0 km/h (0 Bft) O-NO 66 0 min 0,000 mm 0,0 UV-I 0 W/m 15,1 C 18,6 C 0,0 km/h (0 Bft) 0,00 %
16.08.2015 02:17 18,6 C 80 % 1009,0 hPa 0,0 l/m 0,0 km/h (0 Bft) W 279 0 min 0,000 mm 0,0 UV-I 0 W/m 15,1 C 18,6 C 0,0 km/h (0 Bft) 0,00 %
16.08.2015 02:22 18,7 C 81 % 1009,0 hPa 0,0 l/m 0,4 km/h (0 Bft) N-NO 33 0 min 0,000 mm 0,0 UV-I 0 W/m 15,4 C 18,7 C 4,0 km/h (1 Bft) 0,00 %
16.08.2015 02:27 18,6 C 81 % 1009,0 hPa 0,0 l/m 0,0 km/h (0 Bft) N-NW 336 0 min 0,000 mm 0,0 UV-I 0 W/m 15,3 C 18,6 C 0,0 km/h (0 Bft) 0,00 %
16.08.2015 02:32 18,6 C 81 % 1009,0 hPa 0,0 l/m 3,2 km/h (1 Bft) NO 38 0 min 0,000 mm 0,0 UV-I 0 W/m 15,3 C 18,6 C 4,0 km/h (1 Bft) 0,00 %
16.08.2015 02:37 18,5 C 81 % 1009,3 hPa 0,0 l/m 0,7 km/h (0 Bft) W-SW 255 0 min 0,000 mm 0,0 UV-I 0 W/m 15,2 C 18,5 C 4,0 km/h (1 Bft) 0,00 %
16.08.2015 02:42 18,5 C 81 % 1009,4 hPa 0,0 l/m 0,0 km/h (0 Bft) NO 47 0 min 0,000 mm 0,0 UV-I 0 W/m 15,2 C 18,5 C 0,0 km/h (0 Bft) 0,00 %
16.08.2015 02:47 18,5 C 80 % 1009,2 hPa 0,0 l/m 0,4 km/h (0 Bft) O-NO 62 0 min 0,000 mm 0,0 UV-I 0 W/m 15,0 C 18,5 C 4,0 km/h (1 Bft) 0,00 %
16.08.2015 02:52 18,5 C 80 % 1009,1 hPa 0,0 l/m 0,4 km/h (0 Bft) NW 315 0 min 0,000 mm 0,0 UV-I 0 W/m 15,0 C 18,5 C 4,0 km/h (1 Bft) 0,00 %
16.08.2015 02:57 18,5 C 80 % 1009,1 hPa 0,0 l/m 0,0 km/h (0 Bft) N-NO 32 0 min 0,000 mm 0,0 UV-I 0 W/m 15,0 C 18,5 C 0,0 km/h (0 Bft) 0,00 %
16.08.2015 03:02 18,5 C 79 % 1009,2 hPa 0,0 l/m 0,0 km/h (0 Bft) O-NO 65 0 min 0,000 mm 0,0 UV-I 0 W/m 14,8 C 18,5 C 0,0 km/h (0 Bft) 0,00 %
16.08.2015 03:07 18,5 C 79 % 1009,2 hPa 0,0 l/m 1,8 km/h (1 Bft) NW 315 0 min 0,000 mm 0,0 UV-I 0 W/m 14,8 C 18,5 C 4,0 km/h (1 Bft) 0,00 %
16.08.2015 03:12 18,4 C 79 % 1009,1 hPa 0,0 l/m 1,8 km/h (1 Bft) NW 320 0 min 0,000 mm 0,0 UV-I 0 W/m 14,7 C 18,4 C 4,0 km/h (1 Bft) 0,00 %
16.08.2015 03:17 18,3 C 79 % 1009,1 hPa 0,0 l/m 8,3 km/h (2 Bft) W-SW 256 0 min 0,000 mm 0,0 UV-I 0 W/m 14,6 C 17,4 C 11,9 km/h (2 Bft) 0,00 %
16.08.2015 03:22 18,3 C 80 % 1009,0 hPa 0,0 l/m 2,9 km/h (1 Bft) W-SW 256 0 min 0,000 mm 0,0 UV-I 0 W/m 14,8 C 18,3 C 7,9 km/h (2 Bft) 0,00 %
16.08.2015 03:27 18,2 C 80 % 1008,8 hPa 0,0 l/m 0,0 km/h (0 Bft) O-NO 67 0 min 0,000 mm 0,0 UV-I 0 W/m 14,7 C 18,2 C 0,0 km/h (0 Bft) 0,00 %
16.08.2015 03:32 18,1 C 80 % 1008,7 hPa 0,0 l/m 0,4 km/h (0 Bft) N 355 0 min 0,000 mm 0,0 UV-I 0 W/m 14,6 C 18,1 C 4,0 km/h (1 Bft) 0,00 %
16.08.2015 03:37 18,1 C 80 % 1008,6 hPa 0,0 l/m 0,0 km/h (0 Bft) N-NW 341 0 min 0,000 mm 0,0 UV-I 0 W/m 14,6 C 18,1 C 0,0 km/h (0 Bft) 0,00 %
16.08.2015 03:42 18,1 C 80 % 1008,6 hPa 0,0 l/m 1,4 km/h (1 Bft) SO 145 0 min 0,000 mm 0,0 UV-I 0 W/m 14,6 C 18,1 C 4,0 km/h (1 Bft) 0,00 %
16.08.2015 03:47 18,0 C 81 % 1008,7 hPa 0,0 l/m 4,7 km/h (1 Bft) W-SW 256 0 min 0,000 mm 0,0 UV-I 0 W/m 14,7 C 18,0 C 7,9 km/h (2 Bft) 0,00 %
16.08.2015 03:53 18,0 C 81 % 1008,7 hPa 0,0 l/m 0,0 km/h (0 Bft) N-NO 32 0 min 0,000 mm 0,0 UV-I 0 W/m 14,7 C 18,0 C 0,0 km/h (0 Bft) 0,00 %
16.08.2015 03:58 18,0 C 81 % 1008,7 hPa 0,0 l/m 0,0 km/h (0 Bft) N-NW 339 0 min 0,000 mm 0,0 UV-I 0 W/m 14,7 C 18,0 C 0,0 km/h (0 Bft) 0,00 %
16.08.2015 04:03 18,0 C 81 % 1008,9 hPa 0,0 l/m 3,2 km/h (1 Bft) W-SW 256 0 min 0,000 mm 0,0 UV-I 0 W/m 14,7 C 18,0 C 7,9 km/h (2 Bft) 0,00 %
16.08.2015 04:08 17,9 C 82 % 1008,7 hPa 0,0 l/m 0,4 km/h (0 Bft) NO 44 0 min 0,000 mm 0,0 UV-I 0 W/m 14,8 C 17,9 C 4,0 km/h (1 Bft) 0,00 %
16.08.2015 04:13 17,9 C 82 % 1008,7 hPa 0,0 l/m 0,0 km/h (0 Bft) N 351 0 min 0,000 mm 0,0 UV-I 0 W/m 14,8 C 17,9 C 0,0 km/h (0 Bft) 0,00 %
16.08.2015 04:18 17,8 C 82 % 1008,8 hPa 0,0 l/m 0,0 km/h (0 Bft) N 353 0 min 0,000 mm 0,0 UV-I 0 W/m 14,7 C 17,8 C 0,0 km/h (0 Bft) 0,00 %
16.08.2015 04:23 17,8 C 82 % 1009,0 hPa 0,0 l/m 0,0 km/h (0 Bft) N 357 0 min 0,000 mm 0,0 UV-I 0 W/m 14,7 C 17,8 C 0,0 km/h (0 Bft) 0,00 %
16.08.2015 04:28 17,8 C 82 % 1008,9 hPa 0,0 l/m 4,0 km/h (1 Bft) SW 221 0 min 0,000 mm 0,0 UV-I 0 W/m 14,7 C 17,8 C 4,0 km/h (1 Bft) 0,00 %
16.08.2015 04:33 17,8 C 82 % 1009,0 hPa 0,0 l/m 9,7 km/h (2 Bft) W 268 0 min 0,000 mm 0,0 UV-I 0 W/m 14,7 C 16,3 C 11,9 km/h (2 Bft) 0,00 %
16.08.2015 04:38 17,7 C 81 % 1008,8 hPa 0,0 l/m 1,4 km/h (1 Bft) N-NW 337 0 min 0,000 mm 0,0 UV-I 0 W/m 14,4 C 17,7 C 4,0 km/h (1 Bft) 0,00 %
16.08.2015 04:43 17,7 C 81 % 1008,6 hPa 0,0 l/m 0,0 km/h (0 Bft) NO 36 0 min 0,000 mm 0,0 UV-I 0 W/m 14,4 C 17,7 C 0,0 km/h (0 Bft) 0,00 %
16.08.2015 04:48 17,7 C 81 % 1008,5 hPa 0,0 l/m 0,0 km/h (0 Bft) N 353 0 min 0,000 mm 0,0 UV-I 0 W/m 14,4 C 17,7 C 0,0 km/h (0 Bft) 0,00 %
16.08.2015 04:53 17,7 C 81 % 1008,6 hPa 0,0 l/m 0,0 km/h (0 Bft) N 11 0 min 0,000 mm 0,0 UV-I 0 W/m 14,4 C 17,7 C 0,0 km/h (0 Bft) 0,00 %
16.08.2015 04:58 17,6 C 81 % 1008,6 hPa 0,0 l/m 2,2 km/h (1 Bft) N-NW 334 0 min 0,000 mm 0,0 UV-I 0 W/m 14,3 C 17,6 C 4,0 km/h (1 Bft) 0,00 %
16.08.2015 05:03 17,6 C 81 % 1008,5 hPa 0,0 l/m 0,0 km/h (0 Bft) N 351 0 min 0,000 mm 0,0 UV-I 0 W/m 14,3 C 17,6 C 0,0 km/h (0 Bft) 0,00 %
16.08.2015 05:08 17,5 C 81 % 1008,7 hPa 0,0 l/m 0,7 km/h (0 Bft) N 352 0 min 0,000 mm 0,0 UV-I 0 W/m 14,2 C 17,5 C 4,0 km/h (1 Bft) 0,00 %
16.08.2015 05:13 17,5 C 81 % 1008,7 hPa 0,0 l/m 0,0 km/h (0 Bft) N-NO 30 0 min 0,000 mm 0,0 UV-I 0 W/m 14,2 C 17,5 C 0,0 km/h (0 Bft) 0,00 %
16.08.2015 05:18 17,5 C 82 % 1008,8 hPa 0,0 l/m 0,0 km/h (0 Bft) NO 35 0 min 0,000 mm 0,0 UV-I 0 W/m 14,4 C 17,5 C 0,0 km/h (0 Bft) 0,00 %
16.08.2015 05:23 17,5 C 82 % 1008,5 hPa 0,0 l/m 0,0 km/h (0 Bft) N 355 0 min 0,000 mm 0,0 UV-I 0 W/m 14,4 C 17,5 C 0,0 km/h (0 Bft) 0,00 %
16.08.2015 05:28 17,4 C 82 % 1008,7 hPa 0,0 l/m 6,5 km/h (2 Bft) W 281 0 min 0,000 mm 0,0 UV-I 0 W/m 14,3 C 17,4 C 7,9 km/h (2 Bft) 0,00 %
16.08.2015 05:33 17,4 C 82 % 1008,8 hPa 0,0 l/m 1,8 km/h (1 Bft) N-NW 335 0 min 0,000 mm 0,0 UV-I 0 W/m 14,3 C 17,4 C 4,0 km/h (1 Bft) 0,00 %
16.08.2015 05:38 17,3 C 82 % 1008,7 hPa 0,0 l/m 0,4 km/h (0 Bft) W-SW 256 0 min 0,000 mm 0,0 UV-I 0 W/m 14,2 C 17,3 C 4,0 km/h (1 Bft) 0,00 %
16.08.2015 05:43 17,3 C 83 % 1008,6 hPa 0,0 l/m 0,4 km/h (0 Bft) N-NW 347 0 min 0,000 mm 0,0 UV-I 0 W/m 14,4 C 17,3 C 4,0 km/h (1 Bft) 0,00 %
16.08.2015 05:48 17,3 C 83 % 1008,8 hPa 0,0 l/m 4,3 km/h (1 Bft) W-SW 252 0 min 0,000 mm 0,0 UV-I 0 W/m 14,4 C 17,3 C 7,9 km/h (2 Bft) 0,00 %
16.08.2015 05:53 17,3 C 83 % 1008,7 hPa 0,0 l/m 0,0 km/h (0 Bft) N 351 0 min 0,000 mm 0,0 UV-I 0 W/m 14,4 C 17,3 C 0,0 km/h (0 Bft) 0,00 %
16.08.2015 05:58 17,3 C 83 % 1008,9 hPa 0,0 l/m 0,4 km/h (0 Bft) O-NO 67 0 min 0,000 mm 0,0 UV-I 0 W/m 14,4 C 17,3 C 4,0 km/h (1 Bft) 0,00 %
16.08.2015 06:03 17,2 C 83 % 1008,8 hPa 0,0 l/m 0,0 km/h (0 Bft) NO 38 0 min 0,000 mm 0,0 UV-I 0 W/m 14,3 C 17,2 C 0,0 km/h (0 Bft) 0,00 %
16.08.2015 06:08 17,2 C 83 % 1008,9 hPa 0,0 l/m 0,0 km/h (0 Bft) O-NO 59 0 min 0,000 mm 0,0 UV-I 0 W/m 14,3 C 17,2 C 0,0 km/h (0 Bft) 0,00 %
16.08.2015 06:13 17,2 C 84 % 1009,0 hPa 0,0 l/m 2,9 km/h (1 Bft) W-NW 291 0 min 0,000 mm 0,0 UV-I 0 W/m 14,5 C 17,2 C 4,0 km/h (1 Bft) 0,00 %
16.08.2015 06:18 17,1 C 84 % 1009,0 hPa 0,0 l/m 0,4 km/h (0 Bft) N-NW 342 0 min 0,000 mm 0,0 UV-I 0 W/m 14,4 C 17,1 C 4,0 km/h (1 Bft) 0,00 %
16.08.2015 06:23 17,1 C 84 % 1008,9 hPa 0,0 l/m 0,7 km/h (0 Bft) W 267 0 min 0,000 mm 0,0 UV-I 0 W/m 14,4 C 17,1 C 4,0 km/h (1 Bft) 0,00 %
16.08.2015 06:28 17,1 C 84 % 1008,9 hPa 0,0 l/m 0,0 km/h (0 Bft) N 0 0 min 0,000 mm 0,0 UV-I 6 W/m 14,4 C 17,1 C 0,0 km/h (0 Bft) 0,00 %
16.08.2015 06:33 17,1 C 84 % 1008,8 hPa 0,0 l/m 0,4 km/h (0 Bft) S-SW 200 0 min 0,000 mm 0,0 UV-I 10 W/m 14,4 C 17,1 C 4,0 km/h (1 Bft) 0,00 %
16.08.2015 06:38 17,1 C 84 % 1009,0 hPa 0,0 l/m 0,7 km/h (0 Bft) NW 315 0 min 0,000 mm 0,0 UV-I 11 W/m 14,4 C 17,1 C 4,0 km/h (1 Bft) 0,00 %
16.08.2015 06:43 17,1 C 84 % 1008,8 hPa 0,0 l/m 0,7 km/h (0 Bft) N 349 0 min 0,000 mm 0,0 UV-I 17 W/m 14,4 C 17,1 C 4,0 km/h (1 Bft) 0,00 %
16.08.2015 06:48 17,1 C 84 % 1009,1 hPa 0,0 l/m 0,4 km/h (0 Bft) W 269 0 min 0,000 mm 0,0 UV-I 22 W/m 14,4 C 17,1 C 4,0 km/h (1 Bft) 0,00 %
16.08.2015 06:53 17,1 C 84 % 1008,8 hPa 0,0 l/m 0,4 km/h (0 Bft) N 351 0 min 0,000 mm 0,0 UV-I 29 W/m 14,4 C 17,1 C 4,0 km/h (1 Bft) 0,00 %
16.08.2015 06:58 17,1 C 84 % 1009,0 hPa 0,0 l/m 0,4 km/h (0 Bft) W 264 0 min 0,000 mm 0,0 UV-I 35 W/m 14,4 C 17,1 C 4,0 km/h (1 Bft) 0,00 %
16.08.2015 07:03 17,1 C 84 % 1008,9 hPa 0,0 l/m 0,0 km/h (0 Bft) NW 310 0 min 0,000 mm 0,0 UV-I 51 W/m 14,4 C 17,1 C 0,0 km/h (0 Bft) 0,00 %
16.08.2015 07:08 17,2 C 83 % 1008,7 hPa 0,0 l/m 0,0 km/h (0 Bft) NO 34 0 min 0,000 mm 0,0 UV-I 78 W/m 14,3 C 17,2 C 0,0 km/h (0 Bft) 0,00 %
16.08.2015 07:13 17,3 C 83 % 1008,8 hPa 0,0 l/m 2,9 km/h (1 Bft) W-SW 256 0 min 0,000 mm 0,0 UV-I 89 W/m 14,4 C 17,3 C 4,0 km/h (1 Bft) 0,00 %
16.08.2015 07:18 17,4 C 83 % 1008,9 hPa 0,0 l/m 0,0 km/h (0 Bft) N-NW 342 0 min 0,000 mm 0,0 UV-I 100 W/m 14,5 C 17,4 C 0,0 km/h (0 Bft) 0,00 %
16.08.2015 07:23 17,5 C 83 % 1008,9 hPa 0,0 l/m 0,0 km/h (0 Bft) N-NO 28 0 min 0,000 mm 0,0 UV-I 116 W/m 14,6 C 17,5 C 0,0 km/h (0 Bft) 0,00 %
16.08.2015 07:28 17,6 C 82 % 1008,9 hPa 0,0 l/m 0,0 km/h (0 Bft) N-NW 333 0 min 0,000 mm 1,0 UV-I 113 W/m 14,5 C 17,6 C 0,0 km/h (0 Bft) 0,00 %
16.08.2015 07:33 17,7 C 82 % 1008,9 hPa 0,0 l/m 0,0 km/h (0 Bft) O-SO 108 0 min 0,000 mm 0,0 UV-I 70 W/m 14,6 C 17,7 C 0,0 km/h (0 Bft) 0,00 %
16.08.2015 07:38 17,9 C 81 % 1008,8 hPa 0,0 l/m 2,2 km/h (1 Bft) W-SW 256 0 min 0,000 mm 0,0 UV-I 63 W/m 14,6 C 17,9 C 7,9 km/h (2 Bft) 0,00 %
16.08.2015 07:43 17,9 C 82 % 1008,8 hPa 0,0 l/m 0,0 km/h (0 Bft) N 356 0 min 0,000 mm 0,0 UV-I 61 W/m 14,8 C 17,9 C 0,0 km/h (0 Bft) 0,00 %
16.08.2015 07:48 17,8 C 82 % 1008,9 hPa 0,0 l/m 3,2 km/h (1 Bft) W-NW 290 0 min 0,000 mm 0,0 UV-I 60 W/m 14,7 C 17,8 C 4,0 km/h (1 Bft) 0,00 %
16.08.2015 07:53 17,7 C 82 % 1008,9 hPa 0,0 l/m 2,9 km/h (1 Bft) SO 129 0 min 0,000 mm 0,0 UV-I 71 W/m 14,6 C 17,7 C 4,0 km/h (1 Bft) 0,00 %
16.08.2015 07:58 17,6 C 82 % 1008,9 hPa 0,0 l/m 4,3 km/h (1 Bft) W-SW 256 0 min 0,000 mm 0,0 UV-I 59 W/m 14,5 C 17,6 C 7,9 km/h (2 Bft) 0,00 %
16.08.2015 08:03 17,6 C 82 % 1008,9 hPa 0,0 l/m 0,4 km/h (0 Bft) NO 37 0 min 0,000 mm 0,0 UV-I 52 W/m 14,5 C 17,6 C 4,0 km/h (1 Bft) 0,00 %
16.08.2015 08:08 17,6 C 82 % 1008,9 hPa 0,0 l/m 1,4 km/h (1 Bft) SW 224 0 min 0,000 mm 0,0 UV-I 58 W/m 14,5 C 17,6 C 4,0 km/h (1 Bft) 0,00 %
16.08.2015 08:13 17,6 C 82 % 1008,9 hPa 0,0 l/m 0,0 km/h (0 Bft) N-NW 344 0 min 0,000 mm 0,0 UV-I 55 W/m 14,5 C 17,6 C 0,0 km/h (0 Bft) 0,00 %
16.08.2015 08:18 17,6 C 82 % 1008,9 hPa 0,0 l/m 6,8 km/h (2 Bft) W-SW 256 0 min 0,000 mm 0,0 UV-I 50 W/m 14,5 C 17,4 C 11,9 km/h (2 Bft) 0,00 %
16.08.2015 08:23 17,5 C 82 % 1009,0 hPa 0,0 l/m 0,0 km/h (0 Bft) N-NO 24 0 min 0,000 mm 0,0 UV-I 65 W/m 14,4 C 17,5 C 0,0 km/h (0 Bft) 0,00 %
16.08.2015 08:28 17,5 C 82 % 1008,9 hPa 0,0 l/m 0,7 km/h (0 Bft) NW 313 0 min 0,000 mm 0,0 UV-I 88 W/m 14,4 C 17,5 C 4,0 km/h (1 Bft) 0,00 %
16.08.2015 08:33 17,6 C 82 % 1009,2 hPa 0,0 l/m 2,2 km/h (1 Bft) W-SW 256 0 min 0,000 mm 0,0 UV-I 54 W/m 14,5 C 17,6 C 7,9 km/h (2 Bft) 0,00 %
16.08.2015 08:38 17,7 C 82 % 1009,1 hPa 0,0 l/m 0,0 km/h (0 Bft) N 353 0 min 0,000 mm 0,0 UV-I 44 W/m 14,6 C 17,7 C 0,0 km/h (0 Bft) 0,00 %
16.08.2015 08:43 17,7 C 82 % 1009,1 hPa 0,0 l/m 0,7 km/h (0 Bft) W 265 0 min 0,000 mm 0,0 UV-I 46 W/m 14,6 C 17,7 C 4,0 km/h (1 Bft) 0,00 %
16.08.2015 08:48 17,6 C 82 % 1009,1 hPa 0,0 l/m 0,0 km/h (0 Bft) N-NW 342 0 min 0,000 mm 0,0 UV-I 47 W/m 14,5 C 17,6 C 0,0 km/h (0 Bft) 0,00 %
16.08.2015 08:53 17,6 C 82 % 1009,0 hPa 0,0 l/m 0,0 km/h (0 Bft) NO 35 0 min 0,000 mm 0,0 UV-I 58 W/m 14,5 C 17,6 C 0,0 km/h (0 Bft) 0,00 %
16.08.2015 08:58 17,6 C 82 % 1009,2 hPa 0,0 l/m 0,0 km/h (0 Bft) NO 42 0 min 0,000 mm 0,0 UV-I 77 W/m 14,5 C 17,6 C 0,0 km/h (0 Bft) 0,00 %
16.08.2015 09:03 17,7 C 82 % 1008,9 hPa 0,0 l/m 0,0 km/h (0 Bft) N 355 0 min 0,000 mm 1,0 UV-I 128 W/m 14,6 C 17,7 C 0,0 km/h (0 Bft) 0,00 %
16.08.2015 09:08 17,9 C 81 % 1008,8 hPa 0,0 l/m 0,0 km/h (0 Bft) N 355 0 min 0,000 mm 1,0 UV-I 129 W/m 14,6 C 17,9 C 0,0 km/h (0 Bft) 0,00 %
16.08.2015 09:13 18,1 C 80 % 1008,6 hPa 0,0 l/m 0,4 km/h (0 Bft) N 353 0 min 0,000 mm 1,0 UV-I 127 W/m 14,6 C 18,1 C 4,0 km/h (1 Bft) 0,00 %
16.08.2015 09:18 18,3 C 79 % 1008,7 hPa 0,0 l/m 0,0 km/h (0 Bft) N 349 0 min 0,000 mm 0,0 UV-I 85 W/m 14,6 C 18,3 C 0,0 km/h (0 Bft) 0,00 %
16.08.2015 09:23 18,4 C 79 % 1008,7 hPa 0,0 l/m 0,0 km/h (0 Bft) NO 35 0 min 0,000 mm 0,0 UV-I 73 W/m 14,7 C 18,4 C 0,0 km/h (0 Bft) 0,00 %
16.08.2015 09:28 18,3 C 79 % 1008,8 hPa 0,0 l/m 0,4 km/h (0 Bft) W-SW 258 0 min 0,000 mm 0,0 UV-I 84 W/m 14,6 C 18,3 C 4,0 km/h (1 Bft) 0,00 %
16.08.2015 09:33 18,2 C 79 % 1008,8 hPa 0,0 l/m 0,4 km/h (0 Bft) N 351 0 min 0,000 mm 0,0 UV-I 77 W/m 14,5 C 18,2 C 4,0 km/h (1 Bft) 0,00 %
16.08.2015 09:38 18,2 C 79 % 1008,8 hPa 0,0 l/m 0,0 km/h (0 Bft) N 354 0 min 0,000 mm 0,0 UV-I 62 W/m 14,5 C 18,2 C 0,0 km/h (0 Bft) 0,00 %
16.08.2015 09:43 18,2 C 79 % 1008,9 hPa 0,0 l/m 0,0 km/h (0 Bft) N 355 0 min 0,000 mm 0,0 UV-I 59 W/m 14,5 C 18,2 C 0,0 km/h (0 Bft) 0,00 %
16.08.2015 09:48 18,2 C 79 % 1008,9 hPa 0,0 l/m 0,4 km/h (0 Bft) N 357 0 min 0,000 mm 0,0 UV-I 85 W/m 14,5 C 18,2 C 4,0 km/h (1 Bft) 0,00 %
16.08.2015 09:53 18,2 C 79 % 1009,0 hPa 0,0 l/m 2,9 km/h (1 Bft) W-SW 258 0 min 0,000 mm 1,0 UV-I 97 W/m 14,5 C 18,2 C 4,0 km/h (1 Bft) 0,00 %
16.08.2015 09:58 18,1 C 79 % 1008,9 hPa 0,0 l/m 0,0 km/h (0 Bft) NW 318 0 min 0,000 mm 1,0 UV-I 101 W/m 14,4 C 18,1 C 0,0 km/h (0 Bft) 0,00 %
16.08.2015 10:03 18,2 C 78 % 1009,1 hPa 0,0 l/m 5,4 km/h (1 Bft) W 273 0 min 0,000 mm 1,0 UV-I 94 W/m 14,3 C 18,2 C 7,9 km/h (2 Bft) 0,00 %
16.08.2015 10:08 18,2 C 78 % 1008,9 hPa 0,0 l/m 0,0 km/h (0 Bft) NO 45 0 min 0,000 mm 0,0 UV-I 84 W/m 14,3 C 18,2 C 0,0 km/h (0 Bft) 0,00 %
16.08.2015 10:13 18,2 C 78 % 1009,2 hPa 0,0 l/m 0,0 km/h (0 Bft) O 79 0 min 0,000 mm 0,0 UV-I 80 W/m 14,3 C 18,2 C 0,0 km/h (0 Bft) 0,00 %
16.08.2015 10:18 18,3 C 78 % 1009,1 hPa 0,0 l/m 0,0 km/h (0 Bft) NO 41 0 min 0,000 mm 0,0 UV-I 93 W/m 14,4 C 18,3 C 0,0 km/h (0 Bft) 0,00 %
16.08.2015 10:23 18,3 C 78 % 1009,2 hPa 0,0 l/m 0,0 km/h (0 Bft) N 356 0 min 0,000 mm 0,0 UV-I 87 W/m 14,4 C 18,3 C 0,0 km/h (0 Bft) 0,00 %
16.08.2015 10:28 18,4 C 78 % 1009,2 hPa 0,0 l/m 0,0 km/h (0 Bft) N-NO 22 0 min 0,000 mm 0,0 UV-I 87 W/m 14,5 C 18,4 C 0,0 km/h (0 Bft) 0,00 %
16.08.2015 10:33 18,4 C 78 % 1009,2 hPa 0,0 l/m 0,0 km/h (0 Bft) NO 48 0 min 0,000 mm 0,0 UV-I 85 W/m 14,5 C 18,4 C 0,0 km/h (0 Bft) 0,00 %
16.08.2015 10:38 18,4 C 77 % 1009,2 hPa 0,0 l/m 0,4 km/h (0 Bft) NW 314 0 min 0,000 mm 0,0 UV-I 70 W/m 14,3 C 18,4 C 4,0 km/h (1 Bft) 0,00 %
16.08.2015 10:43 18,4 C 78 % 1009,3 hPa 0,0 l/m 0,4 km/h (0 Bft) NO 50 0 min 0,000 mm 0,0 UV-I 70 W/m 14,5 C 18,4 C 4,0 km/h (1 Bft) 0,00 %
16.08.2015 10:48 18,3 C 81 % 1009,2 hPa 0,0 l/m 0,0 km/h (0 Bft) NO 45 0 min 0,000 mm 0,0 UV-I 78 W/m 15,0 C 18,3 C 0,0 km/h (0 Bft) 0,00 %
16.08.2015 10:53 18,3 C 82 % 1009,4 hPa 0,3 l/m 0,0 km/h (0 Bft) NO 36 0 min 0,000 mm 0,0 UV-I 78 W/m 15,2 C 18,3 C 0,0 km/h (0 Bft) 0,00 %
16.08.2015 10:58 18,1 C 85 % 1009,1 hPa 0,0 l/m 0,0 km/h (0 Bft) N 3 0 min 0,000 mm 1,0 UV-I 163 W/m 15,5 C 18,1 C 0,0 km/h (0 Bft) 0,00 %
16.08.2015 11:03 17,9 C 87 % 1009,1 hPa 0,0 l/m 0,0 km/h (0 Bft) O-NO 63 0 min 0,000 mm 1,0 UV-I 220 W/m 15,7 C 17,9 C 0,0 km/h (0 Bft) 0,00 %
16.08.2015 11:08 17,9 C 87 % 1009,2 hPa 0,0 l/m 0,0 km/h (0 Bft) N 355 0 min 0,000 mm 1,0 UV-I 183 W/m 15,7 C 17,9 C 0,0 km/h (0 Bft) 0,00 %
16.08.2015 11:13 18,0 C 87 % 1009,3 hPa 0,0 l/m 0,0 km/h (0 Bft) NO 34 0 min 0,000 mm 1,0 UV-I 166 W/m 15,8 C 18,0 C 0,0 km/h (0 Bft) 0,00 %
16.08.2015 11:18 18,1 C 88 % 1009,3 hPa 0,3 l/m 0,0 km/h (0 Bft) N 355 0 min 0,000 mm 1,0 UV-I 132 W/m 16,1 C 18,1 C 0,0 km/h (0 Bft) 0,00 %
16.08.2015 11:23 18,1 C 88 % 1009,3 hPa 0,0 l/m 0,0 km/h (0 Bft) N-NO 29 0 min 0,000 mm 1,0 UV-I 121 W/m 16,1 C 18,1 C 0,0 km/h (0 Bft) 0,00 %
16.08.2015 11:28 18,1 C 88 % 1009,5 hPa 0,0 l/m 0,4 km/h (0 Bft) O-NO 60 0 min 0,000 mm 0,0 UV-I 84 W/m 16,1 C 18,1 C 4,0 km/h (1 Bft) 0,00 %
16.08.2015 11:33 18,0 C 89 % 1009,5 hPa 0,0 l/m 0,0 km/h (0 Bft) N-NW 339 0 min 0,000 mm 1,0 UV-I 100 W/m 16,2 C 18,0 C 0,0 km/h (0 Bft) 0,00 %
16.08.2015 11:38 17,8 C 90 % 1009,3 hPa 0,3 l/m 0,0 km/h (0 Bft) N-NO 15 0 min 0,000 mm 1,0 UV-I 149 W/m 16,1 C 17,8 C 0,0 km/h (0 Bft) 0,00 %
16.08.2015 11:43 17,7 C 91 % 1009,3 hPa 0,0 l/m 0,0 km/h (0 Bft) N-NW 340 0 min 0,000 mm 1,0 UV-I 210 W/m 16,2 C 17,7 C 0,0 km/h (0 Bft) 0,00 %
16.08.2015 11:48 17,7 C 92 % 1009,5 hPa 0,0 l/m 0,0 km/h (0 Bft) N 354 0 min 0,000 mm 1,0 UV-I 205 W/m 16,4 C 17,7 C 0,0 km/h (0 Bft) 0,00 %
16.08.2015 11:53 17,8 C 91 % 1009,4 hPa 0,0 l/m 0,7 km/h (0 Bft) NW 307 0 min 0,000 mm 1,0 UV-I 199 W/m 16,3 C 17,8 C 4,0 km/h (1 Bft) 0,00 %
16.08.2015 11:58 17,9 C 90 % 1009,5 hPa 0,0 l/m 0,7 km/h (0 Bft) NW 321 0 min 0,000 mm 1,0 UV-I 155 W/m 16,2 C 17,9 C 4,0 km/h (1 Bft) 0,00 %
16.08.2015 12:03 17,9 C 90 % 1009,2 hPa 0,0 l/m 0,0 km/h (0 Bft) N-NW 339 0 min 0,000 mm 1,0 UV-I 149 W/m 16,2 C 17,9 C 0,0 km/h (0 Bft) 0,00 %
16.08.2015 12:08 17,9 C 90 % 1009,3 hPa 0,0 l/m 1,4 km/h (1 Bft) W-NW 289 0 min 0,000 mm 1,0 UV-I 147 W/m 16,2 C 17,9 C 4,0 km/h (1 Bft) 0,00 %
16.08.2015 12:13 17,9 C 90 % 1009,1 hPa 0,0 l/m 0,0 km/h (0 Bft) NO 35 0 min 0,000 mm 1,0 UV-I 168 W/m 16,2 C 17,9 C 0,0 km/h (0 Bft) 0,00 %
16.08.2015 12:18 17,9 C 89 % 1009,1 hPa 0,0 l/m 0,0 km/h (0 Bft) N 355 0 min 0,000 mm 1,0 UV-I 189 W/m 16,1 C 17,9 C 0,0 km/h (0 Bft) 0,00 %
16.08.2015 12:23 18,0 C 89 % 1009,2 hPa 0,0 l/m 0,0 km/h (0 Bft) W-SW 246 0 min 0,000 mm 1,0 UV-I 175 W/m 16,2 C 18,0 C 0,0 km/h (0 Bft) 0,00 %
16.08.2015 12:28 18,1 C 88 % 1009,1 hPa 0,0 l/m 0,0 km/h (0 Bft) NO 48 0 min 0,000 mm 1,0 UV-I 190 W/m 16,1 C 18,1 C 0,0 km/h (0 Bft) 0,00 %
16.08.2015 12:33 18,2 C 87 % 1009,3 hPa 0,0 l/m 0,0 km/h (0 Bft) NO 34 0 min 0,000 mm 1,0 UV-I 211 W/m 16,0 C 18,2 C 0,0 km/h (0 Bft) 0,00 %
16.08.2015 12:38 18,2 C 87 % 1009,5 hPa 0,0 l/m 0,0 km/h (0 Bft) N 354 0 min 0,000 mm 1,0 UV-I 126 W/m 16,0 C 18,2 C 0,0 km/h (0 Bft) 0,00 %
16.08.2015 12:43 18,2 C 87 % 1009,2 hPa 0,0 l/m 0,7 km/h (0 Bft) W-SW 256 0 min 0,000 mm 1,0 UV-I 134 W/m 16,0 C 18,2 C 4,0 km/h (1 Bft) 0,00 %
16.08.2015 12:48 18,1 C 87 % 1009,1 hPa 0,0 l/m 0,4 km/h (0 Bft) W-SW 256 0 min 0,000 mm 1,0 UV-I 203 W/m 15,9 C 18,1 C 4,0 km/h (1 Bft) 0,00 %
16.08.2015 12:53 18,1 C 87 % 1009,3 hPa 0,0 l/m 0,0 km/h (0 Bft) N 8 0 min 0,000 mm 1,0 UV-I 234 W/m 15,9 C 18,1 C 0,0 km/h (0 Bft) 0,00 %
16.08.2015 12:58 18,2 C 88 % 1009,2 hPa 0,0 l/m 0,0 km/h (0 Bft) N 355 0 min 0,000 mm 1,0 UV-I 192 W/m 16,2 C 18,2 C 0,0 km/h (0 Bft) 0,00 %
16.08.2015 13:03 18,5 C 87 % 1009,3 hPa 0,0 l/m 0,0 km/h (0 Bft) N 6 0 min 0,000 mm 1,0 UV-I 233 W/m 16,3 C 18,5 C 0,0 km/h (0 Bft) 0,00 %
16.08.2015 13:08 18,8 C 86 % 1009,2 hPa 0,0 l/m 0,0 km/h (0 Bft) N 356 0 min 0,000 mm 1,0 UV-I 268 W/m 16,4 C 18,8 C 0,0 km/h (0 Bft) 0,00 %
16.08.2015 13:13 19,0 C 83 % 1009,4 hPa 0,0 l/m 0,0 km/h (0 Bft) N-NO 24 0 min 0,000 mm 1,0 UV-I 270 W/m 16,0 C 19,0 C 0,0 km/h (0 Bft) 0,00 %
16.08.2015 13:18 19,0 C 83 % 1009,4 hPa 0,0 l/m 0,4 km/h (0 Bft) W-SW 251 0 min 0,000 mm 1,0 UV-I 213 W/m 16,0 C 19,0 C 4,0 km/h (1 Bft) 0,00 %
16.08.2015 13:23 19,1 C 82 % 1009,3 hPa 0,0 l/m 0,0 km/h (0 Bft) N-NO 15 0 min 0,000 mm 1,0 UV-I 232 W/m 16,0 C 19,1 C 0,0 km/h (0 Bft) 0,00 %
16.08.2015 13:28 19,1 C 82 % 1009,3 hPa 0,0 l/m 0,0 km/h (0 Bft) NO 41 0 min 0,000 mm 1,0 UV-I 311 W/m 16,0 C 19,1 C 0,0 km/h (0 Bft) 0,00 %
16.08.2015 13:33 19,3 C 82 % 1009,3 hPa 0,0 l/m 4,0 km/h (1 Bft) NW 321 0 min 0,000 mm 1,0 UV-I 322 W/m 16,1 C 19,3 C 7,9 km/h (2 Bft) 0,00 %
16.08.2015 13:38 19,7 C 80 % 1009,5 hPa 0,0 l/m 0,0 km/h (0 Bft) N-NW 343 0 min 0,000 mm 2,0 UV-I 390 W/m 16,1 C 19,7 C 0,0 km/h (0 Bft) 0,00 %
16.08.2015 13:43 19,9 C 78 % 1009,3 hPa 0,0 l/m 0,4 km/h (0 Bft) N-NO 23 0 min 0,000 mm 2,0 UV-I 419 W/m 15,9 C 19,9 C 4,0 km/h (1 Bft) 0,00 %
16.08.2015 13:48 20,1 C 77 % 1009,3 hPa 0,0 l/m 4,7 km/h (1 Bft) W-SW 256 0 min 0,000 mm 2,0 UV-I 360 W/m 15,9 C 20,1 C 7,9 km/h (2 Bft) 0,00 %
16.08.2015 13:53 20,4 C 75 % 1009,6 hPa 0,0 l/m 0,0 km/h (0 Bft) N-NO 32 0 min 0,000 mm 2,0 UV-I 386 W/m 15,8 C 20,4 C 0,0 km/h (0 Bft) 0,00 %
16.08.2015 13:58 20,7 C 74 % 1009,7 hPa 0,0 l/m 0,4 km/h (0 Bft) N-NO 31 0 min 0,000 mm 2,0 UV-I 397 W/m 15,9 C 20,7 C 4,0 km/h (1 Bft) 0,00 %
16.08.2015 14:03 20,9 C 72 % 1009,7 hPa 0,0 l/m 4,3 km/h (1 Bft) W-NW 287 0 min 0,000 mm 2,0 UV-I 384 W/m 15,7 C 20,9 C 7,9 km/h (2 Bft) 0,00 %
16.08.2015 14:08 21,0 C 73 % 1009,5 hPa 0,0 l/m 0,0 km/h (0 Bft) NO 56 0 min 0,000 mm 2,0 UV-I 408 W/m 16,0 C 21,0 C 0,0 km/h (0 Bft) 0,00 %
16.08.2015 14:13 20,9 C 71 % 1009,5 hPa 0,0 l/m 6,8 km/h (2 Bft) W-SW 250 0 min 0,000 mm 1,0 UV-I 320 W/m 15,4 C 20,8 C 7,9 km/h (2 Bft) 0,00 %
16.08.2015 14:18 20,8 C 71 % 1009,6 hPa 0,0 l/m 0,0 km/h (0 Bft) N-NW 341 0 min 0,000 mm 1,0 UV-I 306 W/m 15,3 C 20,8 C 0,0 km/h (0 Bft) 0,00 %
16.08.2015 14:23 20,8 C 71 % 1009,6 hPa 0,0 l/m 0,7 km/h (0 Bft) NO 34 0 min 0,000 mm 2,0 UV-I 388 W/m 15,3 C 20,8 C 4,0 km/h (1 Bft) 0,00 %
16.08.2015 14:28 20,6 C 72 % 1009,2 hPa 0,0 l/m 0,4 km/h (0 Bft) NO 43 5 min 0,000 mm 3,0 UV-I 580 W/m 15,4 C 20,6 C 4,0 km/h (1 Bft) 0,00 %
16.08.2015 14:33 20,6 C 72 % 1009,5 hPa 0,0 l/m 6,8 km/h (2 Bft) N-NW 338 5 min 0,000 mm 2,0 UV-I 466 W/m 15,4 C 20,4 C 11,9 km/h (2 Bft) 0,00 %
16.08.2015 14:38 20,8 C 69 % 1009,4 hPa 0,0 l/m 6,5 km/h (2 Bft) W-SW 256 5 min 0,000 mm 2,0 UV-I 460 W/m 14,9 C 20,8 C 7,9 km/h (2 Bft) 0,00 %
16.08.2015 14:43 21,1 C 69 % 1009,3 hPa 0,0 l/m 4,3 km/h (1 Bft) N-NW 343 5 min 0,000 mm 2,0 UV-I 442 W/m 15,2 C 21,1 C 7,9 km/h (2 Bft) 0,00 %
16.08.2015 14:48 21,3 C 68 % 1009,4 hPa 0,0 l/m 3,2 km/h (1 Bft) NW 314 5 min 0,000 mm 2,0 UV-I 442 W/m 15,1 C 21,3 C 7,9 km/h (2 Bft) 0,00 %
16.08.2015 14:53 21,6 C 66 % 1009,4 hPa 0,0 l/m 2,2 km/h (1 Bft) W 259 5 min 0,000 mm 2,0 UV-I 456 W/m 15,0 C 21,6 C 4,0 km/h (1 Bft) 0,00 %
16.08.2015 14:58 21,7 C 67 % 1009,3 hPa 0,0 l/m 0,0 km/h (0 Bft) NO 49 5 min 0,000 mm 2,0 UV-I 414 W/m 15,3 C 21,7 C 0,0 km/h (0 Bft) 0,00 %
16.08.2015 15:03 21,8 C 67 % 1009,3 hPa 0,0 l/m 0,0 km/h (0 Bft) SW 230 0 min 0,000 mm 2,0 UV-I 400 W/m 15,4 C 21,8 C 0,0 km/h (0 Bft) 0,00 %
16.08.2015 15:08 22,0 C 64 % 1009,2 hPa 0,0 l/m 2,9 km/h (1 Bft) NW 310 5 min 0,000 mm 2,0 UV-I 535 W/m 14,9 C 22,0 C 4,0 km/h (1 Bft) 0,00 %
16.08.2015 15:13 21,9 C 65 % 1009,1 hPa 0,0 l/m 1,8 km/h (1 Bft) NO 42 5 min 0,000 mm 2,0 UV-I 468 W/m 15,0 C 21,9 C 4,0 km/h (1 Bft) 0,00 %
16.08.2015 15:18 21,8 C 65 % 1009,3 hPa 0,0 l/m 5,4 km/h (1 Bft) N-NW 345 5 min 0,000 mm 2,0 UV-I 500 W/m 14,9 C 21,8 C 11,9 km/h (2 Bft) 0,00 %
16.08.2015 15:23 21,9 C 65 % 1009,1 hPa 0,0 l/m 4,3 km/h (1 Bft) NW 326 5 min 0,000 mm 2,0 UV-I 600 W/m 15,0 C 21,9 C 7,9 km/h (2 Bft) 0,00 %
16.08.2015 15:28 21,9 C 65 % 1009,1 hPa 0,0 l/m 2,2 km/h (1 Bft) N-NW 337 5 min 0,000 mm 3,0 UV-I 1010 W/m 15,0 C 21,9 C 4,0 km/h (1 Bft) 0,00 %
16.08.2015 15:33 22,2 C 63 % 1009,1 hPa 0,0 l/m 1,4 km/h (1 Bft) N 358 5 min 0,000 mm 3,0 UV-I 892 W/m 14,8 C 22,2 C 4,0 km/h (1 Bft) 0,00 %
16.08.2015 15:38 22,7 C 61 % 1009,0 hPa 0,0 l/m 4,0 km/h (1 Bft) NW 304 5 min 0,000 mm 2,0 UV-I 618 W/m 14,8 C 22,7 C 7,9 km/h (2 Bft) 0,00 %
16.08.2015 15:43 23,0 C 61 % 1009,1 hPa 0,0 l/m 2,9 km/h (1 Bft) N-NW 334 5 min 0,000 mm 2,0 UV-I 454 W/m 15,1 C 23,0 C 4,0 km/h (1 Bft) 0,00 %
16.08.2015 15:48 22,6 C 63 % 1008,9 hPa 0,0 l/m 0,0 km/h (0 Bft) O-NO 71 5 min 0,000 mm 2,0 UV-I 733 W/m 15,2 C 22,6 C 0,0 km/h (0 Bft) 0,00 %
16.08.2015 15:53 22,4 C 62 % 1008,9 hPa 0,0 l/m 2,9 km/h (1 Bft) SW 218 0 min 0,000 mm 2,0 UV-I 327 W/m 14,8 C 22,4 C 4,0 km/h (1 Bft) 0,00 %
16.08.2015 15:58 22,5 C 64 % 1008,9 hPa 0,0 l/m 0,7 km/h (0 Bft) W-NW 288 0 min 0,000 mm 2,0 UV-I 329 W/m 15,3 C 22,5 C 4,0 km/h (1 Bft) 0,00 %
16.08.2015 16:03 22,2 C 64 % 1008,8 hPa 0,0 l/m 2,2 km/h (1 Bft) SW 235 5 min 0,000 mm 2,0 UV-I 356 W/m 15,1 C 22,2 C 4,0 km/h (1 Bft) 0,00 %
16.08.2015 16:08 22,0 C 64 % 1008,7 hPa 0,0 l/m 0,0 km/h (0 Bft) NO 49 0 min 0,000 mm 2,0 UV-I 316 W/m 14,9 C 22,0 C 0,0 km/h (0 Bft) 0,00 %
16.08.2015 16:13 21,9 C 65 % 1008,8 hPa 0,0 l/m 5,4 km/h (1 Bft) W-NW 297 0 min 0,000 mm 1,0 UV-I 301 W/m 15,0 C 21,9 C 7,9 km/h (2 Bft) 0,00 %
16.08.2015 16:18 21,7 C 64 % 1008,7 hPa 0,0 l/m 6,5 km/h (2 Bft) W-NW 290 0 min 0,000 mm 1,0 UV-I 304 W/m 14,6 C 21,7 C 7,9 km/h (2 Bft) 0,00 %
16.08.2015 16:23 21,4 C 67 % 1008,8 hPa 0,0 l/m 0,0 km/h (0 Bft) NO 38 0 min 0,000 mm 1,0 UV-I 214 W/m 15,0 C 21,4 C 0,0 km/h (0 Bft) 0,00 %
16.08.2015 16:28 21,2 C 68 % 1008,9 hPa 0,0 l/m 0,4 km/h (0 Bft) W-NW 294 0 min 0,000 mm 1,0 UV-I 188 W/m 15,1 C 21,2 C 4,0 km/h (1 Bft) 0,00 %
16.08.2015 16:33 21,1 C 69 % 1008,8 hPa 0,0 l/m 0,0 km/h (0 Bft) NO 54 0 min 0,000 mm 1,0 UV-I 255 W/m 15,2 C 21,1 C 0,0 km/h (0 Bft) 0,00 %
16.08.2015 16:38 20,9 C 67 % 1008,9 hPa 0,0 l/m 0,7 km/h (0 Bft) NO 52 0 min 0,000 mm 1,0 UV-I 282 W/m 14,5 C 20,9 C 4,0 km/h (1 Bft) 0,00 %
16.08.2015 16:43 20,9 C 67 % 1008,9 hPa 0,0 l/m 2,2 km/h (1 Bft) N-NW 347 0 min 0,000 mm 1,0 UV-I 267 W/m 14,5 C 20,9 C 4,0 km/h (1 Bft) 0,00 %
16.08.2015 16:48 21,0 C 65 % 1008,8 hPa 0,0 l/m 3,2 km/h (1 Bft) W-SW 256 0 min 0,000 mm 1,0 UV-I 199 W/m 14,2 C 21,0 C 7,9 km/h (2 Bft) 0,00 %
16.08.2015 16:53 20,9 C 67 % 1008,8 hPa 0,0 l/m 0,0 km/h (0 Bft) W-SW 255 0 min 0,000 mm 1,0 UV-I 172 W/m 14,5 C 20,9 C 0,0 km/h (0 Bft) 0,00 %
16.08.2015 16:58 20,9 C 67 % 1008,9 hPa 0,0 l/m 4,3 km/h (1 Bft) W-SW 256 0 min 0,000 mm 1,0 UV-I 156 W/m 14,5 C 20,9 C 7,9 km/h (2 Bft) 0,00 %
16.08.2015 17:03 20,8 C 68 % 1009,0 hPa 0,0 l/m 0,4 km/h (0 Bft) NW 310 0 min 0,000 mm 1,0 UV-I 133 W/m 14,7 C 20,8 C 4,0 km/h (1 Bft) 0,00 %
16.08.2015 17:08 20,7 C 69 % 1009,1 hPa 0,0 l/m 0,4 km/h (0 Bft) N-NW 342 0 min 0,000 mm 1,0 UV-I 104 W/m 14,8 C 20,7 C 4,0 km/h (1 Bft) 0,00 %
16.08.2015 17:13 20,6 C 69 % 1009,3 hPa 0,0 l/m 0,0 km/h (0 Bft) NO 41 0 min 0,000 mm 1,0 UV-I 104 W/m 14,7 C 20,6 C 0,0 km/h (0 Bft) 0,00 %
16.08.2015 17:18 20,4 C 69 % 1009,1 hPa 0,0 l/m 0,0 km/h (0 Bft) O-NO 72 0 min 0,000 mm 1,0 UV-I 103 W/m 14,5 C 20,4 C 0,0 km/h (0 Bft) 0,00 %
16.08.2015 17:23 20,2 C 69 % 1009,2 hPa 0,0 l/m 0,0 km/h (0 Bft) N 349 0 min 0,000 mm 1,0 UV-I 125 W/m 14,3 C 20,2 C 0,0 km/h (0 Bft) 0,00 %
16.08.2015 17:28 20,0 C 70 % 1009,2 hPa 0,0 l/m 0,4 km/h (0 Bft) W-NW 303 0 min 0,000 mm 1,0 UV-I 134 W/m 14,4 C 20,0 C 4,0 km/h (1 Bft) 0,00 %
16.08.2015 17:33 20,0 C 70 % 1009,0 hPa 0,0 l/m 0,0 km/h (0 Bft) NO 44 0 min 0,000 mm 1,0 UV-I 125 W/m 14,4 C 20,0 C 0,0 km/h (0 Bft) 0,00 %
16.08.2015 17:38 20,0 C 70 % 1009,2 hPa 0,0 l/m 0,0 km/h (0 Bft) NO 39 0 min 0,000 mm 1,0 UV-I 117 W/m 14,4 C 20,0 C 0,0 km/h (0 Bft) 0,00 %
16.08.2015 17:43 20,0 C 70 % 1009,2 hPa 0,0 l/m 0,4 km/h (0 Bft) NO 41 0 min 0,000 mm 1,0 UV-I 130 W/m 14,4 C 20,0 C 4,0 km/h (1 Bft) 0,00 %
16.08.2015 17:48 20,1 C 70 % 1009,2 hPa 0,0 l/m 0,0 km/h (0 Bft) NO 41 0 min 0,000 mm 1,0 UV-I 145 W/m 14,5 C 20,1 C 0,0 km/h (0 Bft) 0,00 %
16.08.2015 17:53 20,1 C 69 % 1009,2 hPa 0,0 l/m 0,0 km/h (0 Bft) N-NO 14 0 min 0,000 mm 1,0 UV-I 134 W/m 14,2 C 20,1 C 0,0 km/h (0 Bft) 0,00 %
16.08.2015 17:58 20,2 C 69 % 1009,1 hPa 0,0 l/m 1,8 km/h (1 Bft) NW 315 0 min 0,000 mm 1,0 UV-I 127 W/m 14,3 C 20,2 C 4,0 km/h (1 Bft) 0,00 %
16.08.2015 18:03 20,2 C 69 % 1009,0 hPa 0,0 l/m 2,2 km/h (1 Bft) W-NW 285 0 min 0,000 mm 1,0 UV-I 135 W/m 14,3 C 20,2 C 7,9 km/h (2 Bft) 0,00 %
16.08.2015 18:08 20,1 C 69 % 1009,0 hPa 0,0 l/m 0,0 km/h (0 Bft) N-NO 32 0 min 0,000 mm 1,0 UV-I 120 W/m 14,2 C 20,1 C 0,0 km/h (0 Bft) 0,00 %
16.08.2015 18:13 20,1 C 69 % 1008,9 hPa 0,0 l/m 0,4 km/h (0 Bft) O 96 0 min 0,000 mm 1,0 UV-I 110 W/m 14,2 C 20,1 C 4,0 km/h (1 Bft) 0,00 %
16.08.2015 18:18 20,1 C 70 % 1008,9 hPa 0,0 l/m 0,0 km/h (0 Bft) W-SW 252 0 min 0,000 mm 1,0 UV-I 101 W/m 14,5 C 20,1 C 0,0 km/h (0 Bft) 0,00 %
16.08.2015 18:23 19,9 C 70 % 1009,1 hPa 0,0 l/m 2,9 km/h (1 Bft) W-SW 245 0 min 0,000 mm 1,0 UV-I 108 W/m 14,3 C 19,9 C 4,0 km/h (1 Bft) 0,00 %
16.08.2015 18:28 19,8 C 70 % 1009,2 hPa 0,0 l/m 4,0 km/h (1 Bft) W-NW 284 0 min 0,000 mm 1,0 UV-I 105 W/m 14,2 C 19,8 C 7,9 km/h (2 Bft) 0,00 %
16.08.2015 18:33 19,7 C 71 % 1009,0 hPa 0,0 l/m 0,0 km/h (0 Bft) NO 51 0 min 0,000 mm 1,0 UV-I 117 W/m 14,3 C 19,7 C 0,0 km/h (0 Bft) 0,00 %
16.08.2015 18:38 19,7 C 71 % 1008,9 hPa 0,0 l/m 0,0 km/h (0 Bft) W-NW 295 0 min 0,000 mm 1,0 UV-I 133 W/m 14,3 C 19,7 C 0,0 km/h (0 Bft) 0,00 %
16.08.2015 18:43 19,7 C 71 % 1009,0 hPa 0,0 l/m 0,0 km/h (0 Bft) NO 50 5 min 0,000 mm 1,0 UV-I 138 W/m 14,3 C 19,7 C 0,0 km/h (0 Bft) 0,00 %
16.08.2015 18:48 19,7 C 70 % 1009,0 hPa 0,0 l/m 0,0 km/h (0 Bft) NW 325 0 min 0,000 mm 1,0 UV-I 105 W/m 14,1 C 19,7 C 0,0 km/h (0 Bft) 0,00 %
16.08.2015 18:53 19,6 C 71 % 1008,9 hPa 0,0 l/m 0,7 km/h (0 Bft) W-SW 255 0 min 0,000 mm 0,0 UV-I 97 W/m 14,2 C 19,6 C 4,0 km/h (1 Bft) 0,00 %
16.08.2015 18:58 19,5 C 72 % 1009,1 hPa 0,0 l/m 0,0 km/h (0 Bft) NO 48 0 min 0,000 mm 0,0 UV-I 85 W/m 14,3 C 19,5 C 0,0 km/h (0 Bft) 0,00 %
16.08.2015 19:03 19,4 C 72 % 1009,0 hPa 0,0 l/m 0,4 km/h (0 Bft) N 351 5 min 0,000 mm 0,0 UV-I 105 W/m 14,2 C 19,4 C 4,0 km/h (1 Bft) 0,00 %
16.08.2015 19:08 19,2 C 72 % 1009,2 hPa 0,0 l/m 0,0 km/h (0 Bft) NO 43 5 min 0,000 mm 0,0 UV-I 113 W/m 14,0 C 19,2 C 0,0 km/h (0 Bft) 0,00 %
16.08.2015 19:13 19,2 C 72 % 1009,3 hPa 0,0 l/m 0,0 km/h (0 Bft) N-NO 27 0 min 0,000 mm 0,0 UV-I 85 W/m 14,0 C 19,2 C 0,0 km/h (0 Bft) 0,00 %
16.08.2015 19:18 19,1 C 72 % 1009,5 hPa 0,0 l/m 0,0 km/h (0 Bft) NO 40 0 min 0,000 mm 0,0 UV-I 66 W/m 13,9 C 19,1 C 0,0 km/h (0 Bft) 0,00 %
16.08.2015 19:23 19,0 C 73 % 1009,5 hPa 0,0 l/m 0,0 km/h (0 Bft) N-NO 20 0 min 0,000 mm 0,0 UV-I 39 W/m 14,0 C 19,0 C 0,0 km/h (0 Bft) 0,00 %
16.08.2015 19:28 18,9 C 73 % 1009,5 hPa 0,0 l/m 0,0 km/h (0 Bft) N-NW 344 0 min 0,000 mm 0,0 UV-I 36 W/m 13,9 C 18,9 C 0,0 km/h (0 Bft) 0,00 %
16.08.2015 19:33 18,9 C 74 % 1009,5 hPa 0,0 l/m 0,4 km/h (0 Bft) N-NW 341 0 min 0,000 mm 0,0 UV-I 31 W/m 14,2 C 18,9 C 4,0 km/h (1 Bft) 0,00 %
16.08.2015 19:38 18,8 C 74 % 1009,3 hPa 0,0 l/m 0,0 km/h (0 Bft) NO 46 0 min 0,000 mm 0,0 UV-I 31 W/m 14,1 C 18,8 C 0,0 km/h (0 Bft) 0,00 %
16.08.2015 19:43 18,7 C 75 % 1009,2 hPa 0,0 l/m 0,0 km/h (0 Bft) NO 46 0 min 0,000 mm 0,0 UV-I 32 W/m 14,2 C 18,7 C 0,0 km/h (0 Bft) 0,00 %
16.08.2015 19:48 18,6 C 75 % 1009,2 hPa 0,0 l/m 1,4 km/h (1 Bft) W 259 0 min 0,000 mm 0,0 UV-I 27 W/m 14,1 C 18,6 C 4,0 km/h (1 Bft) 0,00 %
16.08.2015 19:53 18,6 C 75 % 1009,3 hPa 0,0 l/m 0,0 km/h (0 Bft) N-NO 12 5 min 0,000 mm 0,0 UV-I 28 W/m 14,1 C 18,6 C 0,0 km/h (0 Bft) 0,00 %
16.08.2015 19:58 18,5 C 75 % 1009,4 hPa 0,0 l/m 0,0 km/h (0 Bft) NO 43 5 min 0,000 mm 0,0 UV-I 22 W/m 14,0 C 18,5 C 0,0 km/h (0 Bft) 0,00 %
16.08.2015 20:03 18,4 C 76 % 1009,4 hPa 0,0 l/m 0,0 km/h (0 Bft) N-NW 329 5 min 0,000 mm 0,0 UV-I 12 W/m 14,1 C 18,4 C 0,0 km/h (0 Bft) 0,00 %
16.08.2015 20:08 18,3 C 76 % 1009,5 hPa 0,0 l/m 0,0 km/h (0 Bft) N-NW 335 0 min 0,000 mm 0,0 UV-I 5 W/m 14,0 C 18,3 C 0,0 km/h (0 Bft) 0,00 %
16.08.2015 20:13 18,1 C 76 % 1009,7 hPa 0,0 l/m 0,0 km/h (0 Bft) N-NO 21 0 min 0,000 mm 0,0 UV-I 0 W/m 13,8 C 18,1 C 0,0 km/h (0 Bft) 0,00 %
16.08.2015 20:18 18,0 C 78 % 1009,6 hPa 0,0 l/m 0,0 km/h (0 Bft) N 2 0 min 0,000 mm 0,0 UV-I 0 W/m 14,1 C 18,0 C 0,0 km/h (0 Bft) 0,00 %
16.08.2015 20:23 17,9 C 78 % 1009,7 hPa 0,0 l/m 0,4 km/h (0 Bft) NW 307 0 min 0,000 mm 0,0 UV-I 0 W/m 14,0 C 17,9 C 4,0 km/h (1 Bft) 0,00 %
16.08.2015 20:28 17,9 C 79 % 1009,5 hPa 0,0 l/m 0,0 km/h (0 Bft) N 354 0 min 0,000 mm 0,0 UV-I 0 W/m 14,2 C 17,9 C 0,0 km/h (0 Bft) 0,00 %
16.08.2015 20:33 17,8 C 79 % 1009,6 hPa 0,0 l/m 0,0 km/h (0 Bft) NW 324 0 min 0,000 mm 0,0 UV-I 0 W/m 14,1 C 17,8 C 0,0 km/h (0 Bft) 0,00 %
16.08.2015 20:38 17,8 C 80 % 1009,6 hPa 0,0 l/m 0,0 km/h (0 Bft) NO 45 0 min 0,000 mm 0,0 UV-I 0 W/m 14,3 C 17,8 C 0,0 km/h (0 Bft) 0,00 %
16.08.2015 20:44 17,7 C 80 % 1009,5 hPa 0,0 l/m 0,0 km/h (0 Bft) N 355 0 min 0,000 mm 0,0 UV-I 0 W/m 14,2 C 17,7 C 0,0 km/h (0 Bft) 0,00 %
16.08.2015 20:49 17,6 C 80 % 1009,8 hPa 0,0 l/m 0,0 km/h (0 Bft) NO 39 0 min 0,000 mm 0,0 UV-I 0 W/m 14,1 C 17,6 C 0,0 km/h (0 Bft) 0,00 %
16.08.2015 20:54 17,5 C 81 % 1009,8 hPa 0,0 l/m 0,0 km/h (0 Bft) NO 46 0 min 0,000 mm 0,0 UV-I 0 W/m 14,2 C 17,5 C 0,0 km/h (0 Bft) 0,00 %
16.08.2015 20:59 17,4 C 82 % 1009,8 hPa 0,0 l/m 0,0 km/h (0 Bft) N 349 0 min 0,000 mm 0,0 UV-I 0 W/m 14,3 C 17,4 C 0,0 km/h (0 Bft) 0,00 %
16.08.2015 21:04 17,3 C 82 % 1010,0 hPa 0,0 l/m 0,0 km/h (0 Bft) N-NO 25 0 min 0,000 mm 0,0 UV-I 0 W/m 14,2 C 17,3 C 0,0 km/h (0 Bft) 0,00 %
16.08.2015 21:09 17,2 C 82 % 1010,0 hPa 0,0 l/m 0,0 km/h (0 Bft) NO 46 0 min 0,000 mm 0,0 UV-I 0 W/m 14,1 C 17,2 C 0,0 km/h (0 Bft) 0,00 %
16.08.2015 21:14 17,2 C 82 % 1009,9 hPa 0,0 l/m 0,0 km/h (0 Bft) N-NW 348 0 min 0,000 mm 0,0 UV-I 0 W/m 14,1 C 17,2 C 0,0 km/h (0 Bft) 0,00 %
16.08.2015 21:19 17,2 C 82 % 1010,1 hPa 0,0 l/m 0,0 km/h (0 Bft) N-NW 327 0 min 0,000 mm 0,0 UV-I 0 W/m 14,1 C 17,2 C 0,0 km/h (0 Bft) 0,00 %
16.08.2015 21:24 17,1 C 82 % 1010,2 hPa 0,0 l/m 0,0 km/h (0 Bft) NO 37 0 min 0,000 mm 0,0 UV-I 0 W/m 14,0 C 17,1 C 0,0 km/h (0 Bft) 0,00 %
16.08.2015 21:29 17,1 C 82 % 1010,1 hPa 0,0 l/m 0,0 km/h (0 Bft) NO 34 0 min 0,000 mm 0,0 UV-I 0 W/m 14,0 C 17,1 C 0,0 km/h (0 Bft) 0,00 %
16.08.2015 21:34 17,1 C 83 % 1010,2 hPa 0,0 l/m 0,0 km/h (0 Bft) NO 51 0 min 0,000 mm 0,0 UV-I 0 W/m 14,2 C 17,1 C 0,0 km/h (0 Bft) 0,00 %
16.08.2015 21:39 17,1 C 83 % 1010,1 hPa 0,0 l/m 0,0 km/h (0 Bft) NO 46 0 min 0,000 mm 0,0 UV-I 0 W/m 14,2 C 17,1 C 0,0 km/h (0 Bft) 0,00 %
16.08.2015 21:44 17,1 C 83 % 1010,3 hPa 0,0 l/m 0,0 km/h (0 Bft) NW 320 0 min 0,000 mm 0,0 UV-I 0 W/m 14,2 C 17,1 C 0,0 km/h (0 Bft) 0,00 %
16.08.2015 21:49 17,0 C 83 % 1010,2 hPa 0,0 l/m 0,0 km/h (0 Bft) N-NO 32 0 min 0,000 mm 0,0 UV-I 0 W/m 14,1 C 17,0 C 0,0 km/h (0 Bft) 0,00 %
16.08.2015 21:54 17,0 C 83 % 1010,2 hPa 0,0 l/m 0,0 km/h (0 Bft) N-NW 339 0 min 0,000 mm 0,0 UV-I 0 W/m 14,1 C 17,0 C 0,0 km/h (0 Bft) 0,00 %
16.08.2015 21:59 17,0 C 83 % 1010,2 hPa 0,0 l/m 0,0 km/h (0 Bft) NO 37 0 min 0,000 mm 0,0 UV-I 0 W/m 14,1 C 17,0 C 0,0 km/h (0 Bft) 0,00 %
16.08.2015 22:04 17,0 C 83 % 1010,2 hPa 0,0 l/m 0,0 km/h (0 Bft) NO 46 0 min 0,000 mm 0,0 UV-I 0 W/m 14,1 C 17,0 C 0,0 km/h (0 Bft) 0,00 %
16.08.2015 22:09 17,0 C 83 % 1010,2 hPa 0,0 l/m 0,0 km/h (0 Bft) N-NO 12 0 min 0,000 mm 0,0 UV-I 0 W/m 14,1 C 17,0 C 0,0 km/h (0 Bft) 0,00 %
16.08.2015 22:14 17,0 C 83 % 1010,3 hPa 0,0 l/m 0,0 km/h (0 Bft) W-SW 255 0 min 0,000 mm 0,0 UV-I 0 W/m 14,1 C 17,0 C 0,0 km/h (0 Bft) 0,00 %
16.08.2015 22:19 17,0 C 83 % 1010,1 hPa 0,0 l/m 0,0 km/h (0 Bft) N-NW 333 0 min 0,000 mm 0,0 UV-I 0 W/m 14,1 C 17,0 C 0,0 km/h (0 Bft) 0,00 %
16.08.2015 22:24 17,0 C 83 % 1010,0 hPa 0,0 l/m 1,4 km/h (1 Bft) N-NW 342 0 min 0,000 mm 0,0 UV-I 0 W/m 14,1 C 17,0 C 4,0 km/h (1 Bft) 0,00 %
16.08.2015 22:29 17,0 C 83 % 1009,9 hPa 0,0 l/m 2,9 km/h (1 Bft) W 278 0 min 0,000 mm 0,0 UV-I 0 W/m 14,1 C 17,0 C 4,0 km/h (1 Bft) 0,00 %
16.08.2015 22:34 17,0 C 83 % 1009,9 hPa 0,0 l/m 0,7 km/h (0 Bft) NW 322 0 min 0,000 mm 0,0 UV-I 0 W/m 14,1 C 17,0 C 4,0 km/h (1 Bft) 0,00 %
16.08.2015 22:39 16,9 C 82 % 1009,9 hPa 0,0 l/m 2,9 km/h (1 Bft) W-SW 256 0 min 0,000 mm 0,0 UV-I 0 W/m 13,8 C 16,9 C 4,0 km/h (1 Bft) 0,00 %
16.08.2015 22:44 16,9 C 82 % 1009,9 hPa 0,0 l/m 1,4 km/h (1 Bft) W-SW 255 0 min 0,000 mm 0,0 UV-I 0 W/m 13,8 C 16,9 C 4,0 km/h (1 Bft) 0,00 %
16.08.2015 22:49 16,9 C 82 % 1009,8 hPa 0,0 l/m 1,4 km/h (1 Bft) W-NW 295 0 min 0,000 mm 0,0 UV-I 0 W/m 13,8 C 16,9 C 4,0 km/h (1 Bft) 0,00 %
16.08.2015 22:54 16,9 C 82 % 1010,0 hPa 0,0 l/m 0,0 km/h (0 Bft) N-NO 29 0 min 0,000 mm 0,0 UV-I 0 W/m 13,8 C 16,9 C 0,0 km/h (0 Bft) 0,00 %
16.08.2015 22:59 16,8 C 82 % 1010,0 hPa 0,0 l/m 0,7 km/h (0 Bft) N-NW 347 0 min 0,000 mm 0,0 UV-I 0 W/m 13,7 C 16,8 C 4,0 km/h (1 Bft) 0,00 %
16.08.2015 23:04 16,8 C 82 % 1009,9 hPa 0,0 l/m 2,2 km/h (1 Bft) W 272 0 min 0,000 mm 0,0 UV-I 0 W/m 13,7 C 16,8 C 4,0 km/h (1 Bft) 0,00 %
16.08.2015 23:09 16,8 C 82 % 1010,0 hPa 0,0 l/m 0,7 km/h (0 Bft) N 9 0 min 0,000 mm 0,0 UV-I 0 W/m 13,7 C 16,8 C 4,0 km/h (1 Bft) 0,00 %
16.08.2015 23:14 16,8 C 82 % 1010,0 hPa 0,0 l/m 1,8 km/h (1 Bft) N 352 0 min 0,000 mm 0,0 UV-I 0 W/m 13,7 C 16,8 C 4,0 km/h (1 Bft) 0,00 %
16.08.2015 23:19 16,8 C 82 % 1010,1 hPa 0,0 l/m 0,7 km/h (0 Bft) W-NW 302 0 min 0,000 mm 0,0 UV-I 0 W/m 13,7 C 16,8 C 4,0 km/h (1 Bft) 0,00 %
16.08.2015 23:24 16,7 C 82 % 1009,9 hPa 0,0 l/m 0,7 km/h (0 Bft) W-SW 256 0 min 0,000 mm 0,0 UV-I 0 W/m 13,6 C 16,7 C 4,0 km/h (1 Bft) 0,00 %
16.08.2015 23:29 16,7 C 83 % 1009,6 hPa 0,0 l/m 1,4 km/h (1 Bft) W-NW 295 0 min 0,000 mm 0,0 UV-I 0 W/m 13,8 C 16,7 C 4,0 km/h (1 Bft) 0,00 %
16.08.2015 23:34 16,7 C 83 % 1009,9 hPa 0,0 l/m 1,4 km/h (1 Bft) NW 305 0 min 0,000 mm 0,0 UV-I 0 W/m 13,8 C 16,7 C 4,0 km/h (1 Bft) 0,00 %
16.08.2015 23:39 16,7 C 83 % 1009,8 hPa 0,0 l/m 0,4 km/h (0 Bft) NW 316 0 min 0,000 mm 0,0 UV-I 0 W/m 13,8 C 16,7 C 4,0 km/h (1 Bft) 0,00 %
16.08.2015 23:44 16,7 C 83 % 1009,8 hPa 0,0 l/m 0,0 km/h (0 Bft) N-NO 28 0 min 0,000 mm 0,0 UV-I 0 W/m 13,8 C 16,7 C 0,0 km/h (0 Bft) 0,00 %
16.08.2015 23:49 16,7 C 83 % 1010,0 hPa 0,0 l/m 2,9 km/h (1 Bft) W-SW 255 0 min 0,000 mm 0,0 UV-I 0 W/m 13,8 C 16,7 C 4,0 km/h (1 Bft) 0,00 %
16.08.2015 23:54 16,7 C 83 % 1009,8 hPa 0,0 l/m 0,7 km/h (0 Bft) W 276 0 min 0,000 mm 0,0 UV-I 0 W/m 13,8 C 16,7 C 4,0 km/h (1 Bft) 0,00 %
16.08.2015 23:59 16,7 C 83 % 1009,8 hPa 0,0 l/m 0,0 km/h (0 Bft) N 355 0 min 0,000 mm 0,0 UV-I 0 W/m 13,8 C 16,7 C 0,0 km/h (0 Bft) 0,00 %
_ Min-Zeit 23:24 15:38 04:48 - 00:07 - - - - - - 23:24 04:33 00:07 00:02
Minimum _ 16,7 C 61 % 1008,5 hPa - 0,0 km/h (0 Bft) - - - - - - 13,6 C 16,3 C 0,0 km/h (0 Bft) 0,00 %
_ Max-Zeit 15:43 11:48 21:44 10:53 00:27 - - 14:28 00:02 14:28 15:28 13:08 15:43 00:32 00:02
Maximum _ 23,0 C 92 % 1010,3 hPa 0,3 l/m 14,0 km/h
W-SW (3 Bft)
- - 5 min 0,000 mm 3,0 UV-I 1010 W/m 16,4 C 23,0 C 19,8 km/h
W-SW (3 Bft)
0,00 %
Durchschnitt _ 18,6 C 79 % 1009,2 hPa #0,9 l/m 1,2 km/h (1 Bft) W-SW - #1:55 h #0,000 mm 1,3 UV-I 183 W/m 14,7 C 18,5 C 2,7 km/h (1 Bft) 0,00 %